Time,TemperatureF,DewpointF,PressureIn,WindDirection,WindDirectionDegrees,WindSpeedMPH,WindSpeedGustMPH,Humidity,HourlyPrecipIn,Conditions,Clouds,dailyrainin,SoftwareType,DateUTC
2013-02-22 00:01:00,32.0,31.0,-100.00,SE,140,1.0,2.0,95,-99.99,,,-99.99,,2013-02-22 06:01:00,
2013-02-22 00:12:00,32.0,31.0,-100.00,SE,145,1.0,2.0,95,-99.99,,,-99.99,,2013-02-22 06:12:00,
2013-02-22 00:22:00,32.0,31.0,-100.00,SE,145,1.0,2.0,95,-99.99,,,-99.99,,2013-02-22 06:22:00,
2013-02-22 00:42:00,32.0,31.0,-100.00,SE,125,1.0,1.0,95,-99.99,,,-99.99,,2013-02-22 06:42:00,
2013-02-22 00:52:00,32.0,31.0,-100.00,SE,135,1.0,1.0,95,-99.99,,,-99.99,,2013-02-22 06:52:00,
2013-02-22 01:01:00,32.0,31.0,-100.00,SE,135,1.0,1.0,95,-99.99,,,-99.99,,2013-02-22 07:01:00,
2013-02-22 01:11:00,32.0,31.0,-100.00,SE,140,0.0,1.0,95,-99.99,,,-99.99,,2013-02-22 07:11:00,
2013-02-22 01:21:00,32.0,31.0,-100.00,SE,140,0.0,1.0,95,-99.99,,,-99.99,,2013-02-22 07:21:00,
2013-02-22 01:31:00,32.0,31.0,-100.00,SE,140,0.0,1.0,95,-99.99,,,-99.99,,2013-02-22 07:31:00,
2013-02-22 01:42:00,32.0,31.0,-100.00,SE,145,1.0,1.0,95,-99.99,,,-99.99,,2013-02-22 07:42:00,
2013-02-22 01:52:00,32.0,31.0,-100.00,SSE,155,0.0,1.0,95,-99.99,,,-99.99,,2013-02-22 07:52:00,
2013-02-22 02:01:00,32.0,31.0,-100.00,SSE,155,0.0,1.0,95,-99.99,,,-99.99,,2013-02-22 08:01:00,
2013-02-22 02:11:00,32.0,31.0,-100.00,SE,145,0.0,1.0,95,-99.99,,,-99.99,,2013-02-22 08:11:00,
2013-02-22 02:21:00,32.0,31.0,-100.00,SE,145,0.0,1.0,95,-99.99,,,-99.99,,2013-02-22 08:21:00,
2013-02-22 02:31:00,32.0,31.0,-100.00,SE,145,0.0,1.0,95,-99.99,,,-99.99,,2013-02-22 08:31:00,
2013-02-22 02:42:00,32.0,31.0,-100.00,SE,145,0.0,1.0,95,-99.99,,,-99.99,,2013-02-22 08:42:00,
2013-02-22 02:52:00,32.0,31.0,-100.00,SSE,150,0.0,1.0,95,-99.99,,,-99.99,,2013-02-22 08:52:00,
2013-02-22 03:03:00,32.0,31.0,-100.00,SSE,150,0.0,1.0,95,-99.99,,,-99.99,,2013-02-22 09:03:00,
2013-02-22 03:11:00,32.0,31.0,-100.00,SSE,160,0.0,1.0,95,-99.99,,,-99.99,,2013-02-22 09:11:00,
2013-02-22 03:21:00,32.0,31.0,-100.00,SSE,160,0.0,1.0,95,-99.99,,,-99.99,,2013-02-22 09:21:00,
2013-02-22 03:32:00,32.0,31.0,-100.00,SSE,160,0.0,1.0,95,-99.99,,,-99.99,,2013-02-22 09:32:00,
2013-02-22 03:42:00,32.0,31.0,-100.00,SSE,160,0.0,1.0,95,-99.99,,,-99.99,,2013-02-22 09:42:00,
2013-02-22 03:52:00,32.0,31.0,-100.00,SSE,160,0.0,1.0,95,-99.99,,,-99.99,,2013-02-22 09:52:00,
2013-02-22 04:01:00,32.0,31.0,-100.00,SSE,160,0.0,1.0,95,-99.99,,,-99.99,,2013-02-22 10:01:00,
2013-02-22 04:21:00,32.0,31.0,-100.00,South,180,0.0,1.0,95,-99.99,,,-99.99,,2013-02-22 10:21:00,
2013-02-22 04:32:00,32.0,31.0,-100.00,South,180,0.0,1.0,95,-99.99,,,-99.99,,2013-02-22 10:32:00,
2013-02-22 04:42:00,32.0,31.0,-100.00,South,185,0.0,1.0,95,-99.99,,,-99.99,,2013-02-22 10:42:00,
2013-02-22 04:52:00,32.0,31.0,-100.00,South,185,0.0,1.0,95,-99.99,,,-99.99,,2013-02-22 10:52:00,
2013-02-22 05:01:00,32.0,31.0,-100.00,South,185,0.0,0.0,95,-99.99,,,-99.99,,2013-02-22 11:01:00,
2013-02-22 05:11:00,32.0,31.0,-100.00,South,190,0.0,1.0,95,-99.99,,,-99.99,,2013-02-22 11:11:00,
2013-02-22 05:21:00,33.0,32.0,-100.00,South,185,0.0,1.0,95,-99.99,,,-99.99,,2013-02-22 11:21:00,
2013-02-22 05:32:00,33.0,32.0,-100.00,South,185,0.0,1.0,95,-99.99,,,-99.99,,2013-02-22 11:32:00,
2013-02-22 05:42:00,33.0,32.0,-100.00,SSW,200,0.0,1.0,95,-99.99,,,-99.99,,2013-02-22 11:42:00,
2013-02-22 05:52:00,33.0,32.0,-100.00,SSW,205,0.0,1.0,95,-99.99,,,-99.99,,2013-02-22 11:52:00,
2013-02-22 06:02:00,33.0,32.0,-100.00,SSW,205,0.0,1.0,95,-99.99,,,-99.99,,2013-02-22 12:02:00,
2013-02-22 06:11:00,33.0,32.0,-100.00,SSW,205,1.0,1.0,95,-99.99,,,-99.99,,2013-02-22 12:11:00,
2013-02-22 06:22:00,33.0,32.0,-100.00,SSW,200,0.0,1.0,95,-99.99,,,-99.99,,2013-02-22 12:22:00,
2013-02-22 06:32:00,33.0,32.0,-100.00,SSW,200,0.0,1.0,95,-99.99,,,-99.99,,2013-02-22 12:32:00,
2013-02-22 06:42:00,33.0,32.0,-100.00,SSW,200,1.0,1.0,95,-99.99,,,-99.99,,2013-02-22 12:42:00,
2013-02-22 06:52:00,33.0,32.0,-100.00,SSW,210,1.0,1.0,95,-99.99,,,-99.99,,2013-02-22 12:52:00,
2013-02-22 07:02:00,33.0,32.0,-100.00,SSW,210,1.0,1.0,95,-99.99,,,-99.99,,2013-02-22 13:02:00,
2013-02-22 07:11:00,33.0,32.0,-100.00,SSW,210,1.0,1.0,95,-99.99,,,-99.99,,2013-02-22 13:11:00,
2013-02-22 07:22:00,33.0,32.0,-100.00,SW,215,1.0,2.0,95,-99.99,,,-99.99,,2013-02-22 13:22:00,
2013-02-22 07:32:00,33.0,32.0,-100.00,SW,215,1.0,2.0,95,-99.99,,,-99.99,,2013-02-22 13:32:00,
2013-02-22 07:42:00,33.0,32.0,-100.00,SSW,210,1.0,1.0,95,-99.99,,,-99.99,,2013-02-22 13:42:00,
2013-02-22 07:52:00,33.0,32.0,-100.00,SW,215,1.0,2.0,95,-99.99,,,-99.99,,2013-02-22 13:52:00,
2013-02-22 08:01:00,33.0,32.0,-100.00,SW,215,1.0,2.0,95,-99.99,,,-99.99,,2013-02-22 14:01:00,
2013-02-22 08:11:00,33.0,32.0,-100.00,SW,215,1.0,2.0,95,-99.99,,,-99.99,,2013-02-22 14:11:00,
2013-02-22 08:21:00,33.0,32.0,-100.00,SSW,210,1.0,2.0,95,-99.99,,,-99.99,,2013-02-22 14:21:00,
2013-02-22 08:32:00,33.0,32.0,-100.00,SSW,210,1.0,2.0,95,-99.99,,,-99.99,,2013-02-22 14:32:00,
2013-02-22 08:42:00,34.0,33.0,-100.00,SW,215,1.0,2.0,95,-99.99,,,-99.99,,2013-02-22 14:42:00,
2013-02-22 08:53:00,34.0,33.0,-100.00,SSW,210,2.0,2.0,95,-99.99,,,-99.99,,2013-02-22 14:53:00,
2013-02-22 09:01:00,34.0,33.0,-100.00,SSW,210,2.0,2.0,95,-99.99,,,-99.99,,2013-02-22 15:01:00,
2013-02-22 09:11:00,34.0,33.0,-100.00,SW,220,1.0,2.0,95,-99.99,,,-99.99,,2013-02-22 15:11:00,
2013-02-22 09:21:00,34.0,33.0,-100.00,SW,220,1.0,2.0,95,-99.99,,,-99.99,,2013-02-22 15:21:00,
2013-02-22 09:32:00,34.0,33.0,-100.00,SW,220,1.0,1.0,95,-99.99,,,-99.99,,2013-02-22 15:32:00,
2013-02-22 09:42:00,34.0,32.0,-100.00,SW,220,0.0,1.0,94,-99.99,,,-99.99,,2013-02-22 15:42:00,
2013-02-22 09:52:00,34.0,32.0,-100.00,SW,225,16.0,21.0,93,-99.99,,,-99.99,,2013-02-22 15:52:00,
2013-02-22 10:01:00,34.0,32.0,-100.00,SW,225,16.0,21.0,93,-99.99,,,-99.99,,2013-02-22 16:01:00,
2013-02-22 10:12:00,34.0,32.0,-100.00,SW,225,18.0,21.0,93,-99.99,,,-99.99,,2013-02-22 16:12:00,
2013-02-22 10:22:00,34.0,32.0,-100.00,SW,230,18.0,21.0,91,-99.99,,,-99.99,,2013-02-22 16:22:00,
2013-02-22 10:32:00,34.0,32.0,-100.00,SW,230,18.0,21.0,91,-99.99,,,-99.99,,2013-02-22 16:32:00,
2013-02-22 10:42:00,35.0,32.0,-100.00,SW,235,19.0,23.0,89,-99.99,,,-99.99,,2013-02-22 16:42:00,
2013-02-22 10:52:00,35.0,31.0,-100.00,WSW,240,21.0,23.0,86,-99.99,,,-99.99,,2013-02-22 16:52:00,
2013-02-22 11:01:00,35.0,31.0,-100.00,WSW,240,21.0,23.0,86,-99.99,,,-99.99,,2013-02-22 17:01:00,
2013-02-22 11:11:00,35.0,31.0,-100.00,WSW,240,21.0,23.0,86,-99.99,,,-99.99,,2013-02-22 17:11:00,
2013-02-22 11:21:00,34.0,30.0,-100.00,SW,230,21.0,23.0,84,-99.99,,,-99.99,,2013-02-22 17:21:00,
2013-02-22 11:32:00,34.0,30.0,-100.00,SW,230,21.0,23.0,84,-99.99,,,-99.99,,2013-02-22 17:32:00,
2013-02-22 11:42:00,34.0,30.0,-100.00,WSW,240,17.0,19.0,85,-99.99,,,-99.99,,2013-02-22 17:42:00,
2013-02-22 11:52:00,35.0,31.0,-100.00,WSW,245,19.0,23.0,84,-99.99,,,-99.99,,2013-02-22 17:52:00,
2013-02-22 12:01:00,35.0,31.0,-100.00,WSW,245,19.0,23.0,84,-99.99,,,-99.99,,2013-02-22 18:01:00,
2013-02-22 12:12:00,34.0,30.0,-100.00,WSW,245,18.0,21.0,84,-99.99,,,-99.99,,2013-02-22 18:12:00,
2013-02-22 12:22:00,34.0,30.0,-100.00,WSW,245,18.0,21.0,84,-99.99,,,-99.99,,2013-02-22 18:22:00,
2013-02-22 12:32:00,34.0,30.0,-100.00,WSW,245,18.0,21.0,84,-99.99,,,-99.99,,2013-02-22 18:32:00,
2013-02-22 12:42:00,34.0,29.0,-100.00,WSW,250,19.0,21.0,83,-99.99,,,-99.99,,2013-02-22 18:42:00,
2013-02-22 12:52:00,34.0,29.0,-100.00,WSW,255,16.0,21.0,83,-99.99,,,-99.99,,2013-02-22 18:52:00,
2013-02-22 13:01:00,34.0,29.0,-100.00,WSW,255,16.0,21.0,83,-99.99,,,-99.99,,2013-02-22 19:01:00,
2013-02-22 13:11:00,34.0,29.0,-100.00,WSW,255,21.0,21.0,81,-99.99,,,-99.99,,2013-02-22 19:11:00,
2013-02-22 13:21:00,34.0,28.0,-100.00,WSW,255,21.0,24.0,80,-99.99,,,-99.99,,2013-02-22 19:21:00,
2013-02-22 13:31:00,34.0,28.0,-100.00,WSW,255,21.0,24.0,80,-99.99,,,-99.99,,2013-02-22 19:31:00,
2013-02-22 13:32:00,33.0,27.0,-100.00,WSW,250,25.0,27.0,77,-99.99,,,-99.99,,2013-02-22 19:32:00,
2013-02-22 13:41:00,34.0,28.0,-100.00,WSW,250,21.0,25.0,78,-99.99,,,-99.99,,2013-02-22 19:41:00,
2013-02-22 13:52:00,34.0,28.0,-100.00,West,260,23.0,26.0,77,-99.99,,,-99.99,,2013-02-22 19:52:00,
2013-02-22 14:01:00,34.0,28.0,-100.00,West,260,23.0,26.0,77,-99.99,,,-99.99,,2013-02-22 20:01:00,
2013-02-22 14:11:00,33.0,27.0,-100.00,WSW,250,25.0,27.0,77,-99.99,,,-99.99,,2013-02-22 20:11:00,
2013-02-22 14:21:00,33.0,27.0,-100.00,WSW,250,25.0,27.0,77,-99.99,,,-99.99,,2013-02-22 20:21:00,
2013-02-22 14:42:00,33.0,26.0,-100.00,WSW,250,29.0,32.0,74,-99.99,,,-99.99,,2013-02-22 20:42:00,
2013-02-22 14:52:00,33.0,25.0,-100.00,WSW,255,25.0,32.0,73,-99.99,,,-99.99,,2013-02-22 20:52:00,
2013-02-22 15:01:00,33.0,25.0,-100.00,WSW,255,25.0,32.0,73,-99.99,,,-99.99,,2013-02-22 21:01:00,
2013-02-22 15:11:00,33.0,25.0,-100.00,WSW,255,25.0,29.0,72,-99.99,,,-99.99,,2013-02-22 21:11:00,
2013-02-22 15:21:00,32.0,24.0,-100.00,WSW,255,24.0,27.0,72,-99.99,,,-99.99,,2013-02-22 21:21:00,
2013-02-22 15:32:00,32.0,24.0,-100.00,WSW,255,24.0,27.0,72,-99.99,,,-99.99,,2013-02-22 21:32:00,
2013-02-22 15:42:00,32.0,24.0,-100.00,WSW,250,27.0,32.0,72,-99.99,,,-99.99,,2013-02-22 21:42:00,
2013-02-22 15:52:00,32.0,23.0,-100.00,WSW,250,26.0,29.0,68,-99.99,,,-99.99,,2013-02-22 21:52:00,
2013-02-22 16:01:00,32.0,23.0,-100.00,WSW,250,26.0,29.0,68,-99.99,,,-99.99,,2013-02-22 22:01:00,
2013-02-22 16:11:00,32.0,22.0,-100.00,West,265,23.0,26.0,66,-99.99,,,-99.99,,2013-02-22 22:11:00,
2013-02-22 16:21:00,32.0,22.0,-100.00,West,265,21.0,25.0,65,-99.99,,,-99.99,,2013-02-22 22:21:00,
2013-02-22 16:31:00,32.0,22.0,-100.00,West,265,21.0,25.0,65,-99.99,,,-99.99,,2013-02-22 22:31:00,
2013-02-22 16:42:00,31.0,21.0,-100.00,West,265,24.0,27.0,66,-99.99,,,-99.99,,2013-02-22 22:42:00,
2013-02-22 16:52:00,31.0,22.0,-100.00,West,265,23.0,27.0,68,-99.99,,,-99.99,,2013-02-22 22:52:00,
2013-02-22 17:01:00,31.0,22.0,-100.00,West,265,23.0,27.0,68,-99.99,,,-99.99,,2013-02-22 23:01:00,
2013-02-22 17:11:00,30.0,21.0,-100.00,West,260,24.0,26.0,68,-99.99,,,-99.99,,2013-02-22 23:11:00,
2013-02-22 17:21:00,30.0,20.0,-100.00,WSW,250,21.0,25.0,65,-99.99,,,-99.99,,2013-02-22 23:21:00,
2013-02-22 17:31:00,30.0,20.0,-100.00,WSW,250,21.0,25.0,65,-99.99,,,-99.99,,2013-02-22 23:31:00,
2013-02-22 17:41:00,30.0,20.0,-100.00,West,265,21.0,25.0,66,-99.99,,,-99.99,,2013-02-22 23:41:00,
2013-02-22 17:52:00,30.0,20.0,-100.00,West,265,21.0,25.0,66,-99.99,,,-99.99,,2013-02-22 23:52:00,
2013-02-22 18:01:00,30.0,20.0,-100.00,West,265,21.0,25.0,66,-99.99,,,-99.99,,2013-02-23 00:01:00,
2013-02-22 18:11:00,29.0,19.0,-100.00,West,275,16.0,18.0,66,-99.99,,,-99.99,,2013-02-23 00:11:00,
2013-02-22 18:21:00,29.0,19.0,-100.00,West,275,16.0,18.0,66,-99.99,,,-99.99,,2013-02-23 00:21:00,
2013-02-22 18:32:00,29.0,19.0,-100.00,West,275,16.0,18.0,66,-99.99,,,-99.99,,2013-02-23 00:32:00,
2013-02-22 18:42:00,29.0,19.0,-100.00,West,280,19.0,24.0,65,-99.99,,,-99.99,,2013-02-23 00:42:00,
2013-02-22 18:52:00,29.0,19.0,-100.00,WNW,285,14.0,18.0,66,-99.99,,,-99.99,,2013-02-23 00:52:00,
2013-02-22 19:01:00,29.0,19.0,-100.00,WNW,285,14.0,18.0,66,-99.99,,,-99.99,,2013-02-23 01:01:00,
2013-02-22 19:11:00,29.0,20.0,-100.00,WNW,285,12.0,16.0,68,-99.99,,,-99.99,,2013-02-23 01:11:00,
2013-02-22 19:21:00,29.0,19.0,-100.00,West,280,18.0,21.0,66,-99.99,,,-99.99,,2013-02-23 01:21:00,
2013-02-22 19:32:00,29.0,19.0,-100.00,West,280,18.0,21.0,66,-99.99,,,-99.99,,2013-02-23 01:32:00,
2013-02-22 19:42:00,28.0,18.0,-100.00,West,270,18.0,21.0,66,-99.99,,,-99.99,,2013-02-23 01:42:00,
2013-02-22 19:52:00,28.0,18.0,-100.00,West,270,18.0,21.0,66,-99.99,,,-99.99,,2013-02-23 01:52:00,
2013-02-22 20:01:00,28.0,18.0,-100.00,West,270,18.0,21.0,66,-99.99,,,-99.99,,2013-02-23 02:01:00,
2013-02-22 20:11:00,28.0,18.0,-100.00,West,270,17.0,21.0,66,-99.99,,,-99.99,,2013-02-23 02:11:00,
2013-02-22 20:21:00,28.0,18.0,-100.00,West,270,17.0,21.0,66,-99.99,,,-99.99,,2013-02-23 02:21:00,
2013-02-22 20:31:00,28.0,18.0,-100.00,West,270,17.0,21.0,66,-99.99,,,-99.99,,2013-02-23 02:31:00,
2013-02-22 20:52:00,28.0,18.0,-100.00,West,275,14.0,16.0,67,-99.99,,,-99.99,,2013-02-23 02:52:00,
2013-02-22 21:01:00,28.0,18.0,-100.00,West,275,14.0,16.0,67,-99.99,,,-99.99,,2013-02-23 03:01:00,
2013-02-22 21:11:00,28.0,18.0,-100.00,West,265,16.0,19.0,67,-99.99,,,-99.99,,2013-02-23 03:11:00,
2013-02-22 21:21:00,27.0,18.0,-100.00,West,265,14.0,17.0,68,-99.99,,,-99.99,,2013-02-23 03:21:00,
2013-02-22 21:32:00,27.0,18.0,-100.00,West,265,14.0,17.0,68,-99.99,,,-99.99,,2013-02-23 03:32:00,
2013-02-22 21:42:00,27.0,18.0,-100.00,West,265,14.0,17.0,68,-99.99,,,-99.99,,2013-02-23 03:42:00,
2013-02-22 21:52:00,27.0,19.0,-100.00,WSW,255,16.0,18.0,70,-99.99,,,-99.99,,2013-02-23 03:52:00,
2013-02-22 22:01:00,27.0,19.0,-100.00,WSW,255,16.0,18.0,70,-99.99,,,-99.99,,2013-02-23 04:01:00,
2013-02-22 22:11:00,27.0,19.0,-100.00,WSW,255,17.0,18.0,70,-99.99,,,-99.99,,2013-02-23 04:11:00,
2013-02-22 22:21:00,26.0,18.0,-100.00,WSW,245,14.0,16.0,71,-99.99,,,-99.99,,2013-02-23 04:21:00,
2013-02-22 22:31:00,26.0,18.0,-100.00,WSW,245,14.0,16.0,71,-99.99,,,-99.99,,2013-02-23 04:31:00,
2013-02-22 22:41:00,26.0,18.0,-100.00,WSW,245,14.0,16.0,71,-99.99,,,-99.99,,2013-02-23 04:41:00,
2013-02-22 22:52:00,26.0,19.0,-100.00,WSW,250,16.0,17.0,73,-99.99,,,-99.99,,2013-02-23 04:52:00,
2013-02-22 23:03:00,26.0,19.0,-100.00,WSW,250,16.0,17.0,73,-99.99,,,-99.99,,2013-02-23 05:03:00,
2013-02-22 23:12:00,26.0,19.0,-100.00,WSW,250,16.0,17.0,73,-99.99,,,-99.99,,2013-02-23 05:12:00,
2013-02-22 23:32:00,23.0,17.0,-100.00,WSW,250,12.0,14.0,77,-99.99,,,-99.99,,2013-02-23 05:32:00,